Location: Devore Heights
(34.2372°N, 117.4156°W)
Time: 07:11:55
(UTC+00:00)

ARIANE 6 FM1 Upper Stage - Pass Details

Date: 16 August 2024
Orbit: 567 x 594 km, 62.0° (Epoch: 06 September)

Event Time Altitude Azimuth Distance (km) Brightness Sun altitude
Rises 12:28:09 0° 174° (S) 2,773 6.0 -9.4°
Reaches altitude 10° 12:30:59 10° 154° (SSE) 1,885 5.4 -8.8°
Maximum altitude 12:33:47 17° 113° (ESE) 1,484 5.5 -8.3°
Drops below altitude 10° 12:36:36 10° 71° (ENE) 1,906 7.1 -7.7°
Sets 12:39:29 0° 52° (NE) 2,816 8.0 -7.2°
